{"data":{"norad_id":27445,"epoch":"2026-09-19T14:53:29.698368Z","epoch_age_seconds":86949,"freshness":"FRESH","line1":"1 27445U 02030A   26262.62048262 -.00000156  00000+0  00000+0 0  9996","line2":"2 27445   3.9787  76.7820 0001635  42.0869   8.1979  1.00272619 47443","mean_motion":1.00272619,"eccentricity":0.0001635,"inclination_deg":3.9787,"raan_deg":76.782,"arg_perigee_deg":42.0869,"mean_anomaly_deg":8.1979,"bstar":0,"rev_number":4744,"period_min":1436.0849595441,"perigee_km":35779.467266887,"apogee_km":35793.255057786,"semimajor_km":42164.498162336,"source":"CELESTRAK","updated_at":"2026-09-20T09:00:35.514336Z"}}